period_start,C,m1,H,J0,J1,J2,J3,J4,J5,JA,JB,JC,JD,JJ,JK,JN,#
2018-04-26 00:03:59,0.06,6.27,0.00,25.48,29.10,32.08,13.88,49.80,1018.02,2015.38,1673.98,1844.00,2082.67,599.91,591.85,52.93,0000 0000 0000 0000 000000
2018-04-26 00:09:01,0.07,6.27,0.00,25.47,29.09,32.15,13.91,49.56,1017.72,2015.50,1673.33,1843.92,2082.05,600.18,591.92,52.98,0000 0000 0000 0000 000000
2018-04-26 00:14:02,0.09,6.28,0.00,25.35,29.06,32.10,13.91,49.63,1017.62,2015.69,1672.93,1843.27,2081.99,600.29,592.21,53.03,0000 0000 0000 0000 000000
2018-04-26 00:19:03,0.06,6.28,0.00,25.28,29.02,32.01,13.93,49.75,1017.63,2015.95,1672.37,1843.03,2081.90,600.15,592.06,53.08,0000 0000 0000 0000 000000
2018-04-26 00:24:04,0.03,6.29,0.00,25.26,28.99,31.93,13.95,49.80,1017.62,2015.99,1672.01,1843.00,2081.29,599.82,591.92,53.13,0000 0000 0000 0000 000000
2018-04-26 00:29:05,0.01,6.29,0.00,25.24,28.95,31.86,13.97,49.72,1017.61,2015.99,1671.90,1843.00,2081.02,600.49,592.69,53.18,0000 0000 0000 0000 000000
2018-04-26 00:34:07,0.04,6.29,0.00,25.22,28.91,31.84,13.82,49.76,1017.60,2015.99,1671.16,1842.98,2081.00,600.07,592.14,53.23,0000 0000 0000 0000 000000
2018-04-26 00:39:08,0.02,6.29,0.00,25.23,28.88,31.73,13.86,49.75,1017.59,2015.99,1670.97,1842.80,2080.99,599.89,592.04,53.28,0000 0000 0000 0000 000000
2018-04-26 00:44:09,0.08,6.29,0.00,25.24,28.84,31.66,13.93,49.89,1017.59,2016.09,1670.63,1842.39,2080.78,600.13,592.28,53.33,0000 0000 0000 0000 000000
2018-04-26 00:49:11,0.11,6.30,0.00,25.20,28.80,31.60,13.88,50.01,1017.56,2016.67,1670.26,1842.22,2080.48,599.92,592.12,53.38,0000 0000 0000 0000 000000
2018-04-26 00:54:12,0.03,6.30,0.00,25.19,28.76,31.56,13.91,49.93,1017.47,2016.95,1670.01,1842.02,2080.06,600.09,592.22,53.43,0000 0000 0000 0000 000000
2018-04-26 00:59:13,0.00,6.30,0.00,25.19,28.72,31.51,13.88,49.98,1017.42,2016.99,1669.98,1842.00,2080.00,599.68,591.69,53.48,0000 0000 0000 0000 000000
2018-04-26 01:04:14,0.03,6.30,0.00,25.21,28.68,31.47,13.89,49.99,1017.33,2016.99,1669.53,1842.00,2080.00,600.08,592.25,53.53,0000 0000 0000 0000 000000
2018-04-26 01:09:15,0.01,6.30,0.00,25.26,28.64,31.43,13.88,49.87,1017.19,2017.00,1669.15,1841.99,2079.98,600.26,592.12,53.58,0000 0000 0000 0000 000000
2018-04-26 01:14:17,0.02,6.31,0.00,25.42,28.61,31.37,13.84,49.82,1017.12,2017.05,1669.07,1841.98,2079.93,600.26,591.84,53.64,0000 0000 0000 0000 000000
2018-04-26 01:19:18,0.09,6.31,0.00,25.50,28.58,31.36,13.80,49.73,1017.11,2017.23,1668.92,1841.69,2079.29,600.13,591.51,53.69,0000 0000 0000 0000 000000
2018-04-26 01:24:19,0.10,6.31,0.00,25.52,28.56,31.38,13.86,49.83,1017.10,2017.65,1668.62,1841.20,2079.01,599.97,591.05,53.74,0000 0000 0000 0000 000000
2018-04-26 01:29:20,0.05,6.32,0.00,25.48,28.53,31.39,13.84,49.81,1017.10,2017.94,1668.04,1841.03,2079.00,599.70,590.97,53.79,0000 0000 0000 0000 000000
2018-04-26 01:34:21,0.02,6.32,0.00,25.39,28.51,31.37,13.86,49.81,1017.08,2017.98,1667.87,1841.00,2078.94,600.31,591.87,53.84,0000 0000 0000 0000 000000
2018-04-26 01:39:23,0.04,6.32,0.00,25.35,28.48,31.30,13.85,49.83,1017.09,2017.99,1667.34,1840.99,2078.62,600.05,591.70,53.89,0000 0000 0000 0000 000000
2018-04-26 01:44:24,0.03,6.32,0.00,25.36,28.46,31.27,13.87,49.85,1016.94,2018.00,1667.01,1840.96,2078.06,600.22,591.60,53.94,0000 0000 0000 0000 000000
2018-04-26 01:49:25,0.03,6.32,0.00,25.38,28.44,31.17,13.78,49.64,1016.75,2018.00,1666.94,1840.60,2078.00,600.28,591.64,53.99,0000 0000 0000 0000 000000
2018-04-26 01:54:27,0.05,6.33,0.00,25.37,28.42,31.13,13.91,49.62,1016.64,2018.02,1666.39,1840.10,2077.98,600.23,591.59,54.04,0000 0000 0000 0000 000000
2018-04-26 01:59:28,0.02,6.33,0.00,25.41,28.40,31.12,13.87,49.64,1016.64,2018.06,1666.10,1840.02,2077.81,600.34,591.61,54.09,0000 0000 0000 0000 000000
2018-04-26 02:04:29,0.02,6.33,0.00,25.43,28.40,31.10,13.64,49.59,1016.64,2018.11,1666.00,1840.00,2077.23,599.93,591.00,54.14,0000 0000 0000 0000 000000
2018-04-26 02:09:31,0.02,6.33,0.00,25.44,28.38,31.11,13.87,49.66,1016.62,2018.15,1665.97,1839.97,2077.02,600.24,591.41,54.19,0000 0000 0000 0000 000000
2018-04-26 02:14:32,0.07,6.33,0.00,25.48,28.37,31.12,13.85,49.68,1016.62,2018.31,1665.61,1839.58,2076.99,600.33,591.46,54.24,0000 0000 0000 0000 000000
2018-04-26 02:19:33,0.05,6.34,0.00,25.55,28.37,31.09,13.84,49.64,1016.62,2018.31,1665.08,1839.05,2076.73,600.14,591.18,54.29,0000 0000 0000 0000 000000
2018-04-26 02:24:34,0.11,6.34,0.00,25.57,28.37,31.10,13.78,49.62,1016.62,2018.65,1664.54,1839.00,2076.09,599.82,590.73,54.34,0000 0000 0000 0000 000000
2018-04-26 02:29:35,0.06,6.34,0.00,25.61,28.37,31.13,13.87,49.64,1016.62,2018.90,1663.94,1838.79,2075.88,599.82,590.64,54.39,0000 0000 0000 0000 000000
2018-04-26 02:34:37,0.09,6.35,0.00,25.69,28.37,31.12,13.71,49.48,1016.62,2018.88,1663.28,1838.07,2075.16,599.48,590.27,54.44,0000 0000 0000 0000 000000
2018-04-26 02:39:38,0.00,6.35,0.00,25.74,28.38,31.13,13.73,49.51,1016.62,2018.90,1663.00,1837.99,2074.99,600.07,590.52,54.50,0000 0000 0000 0000 000000
2018-04-26 02:44:39,0.05,6.35,0.00,25.73,28.40,31.16,13.83,49.69,1016.50,2018.89,1662.78,1837.81,2074.66,600.20,590.69,54.55,0000 0000 0000 0000 000000
2018-04-26 02:49:41,0.08,6.36,0.00,25.80,28.41,31.17,13.85,49.75,1016.27,2018.89,1662.24,1837.18,2074.07,600.33,590.55,54.60,0000 0000 0000 0000 000000
2018-04-26 02:54:42,-0.01,6.36,0.00,25.79,28.42,31.18,13.66,49.58,1016.25,2018.67,1661.80,1836.98,2073.81,599.61,589.69,54.65,0000 0000 0000 0000 000000
2018-04-26 02:59:43,0.10,6.36,0.00,25.78,28.43,31.21,13.89,49.65,1016.17,2018.63,1661.16,1836.53,2073.10,600.12,590.38,54.70,0000 0000 0000 0000 000000
2018-04-26 03:04:44,0.00,6.36,0.00,25.84,28.45,31.22,13.76,49.64,1016.14,2018.39,1660.73,1836.02,2072.95,599.98,590.07,54.75,0000 0000 0000 0000 000000
2018-04-26 03:09:46,0.04,6.37,0.00,25.87,28.46,31.23,13.74,49.66,1016.14,2018.28,1660.15,1835.93,2072.32,599.81,589.81,54.80,0000 0000 0000 0000 000000
2018-04-26 03:14:47,0.03,6.37,0.00,25.87,28.47,31.26,13.71,49.66,1016.13,2018.08,1659.87,1835.31,2071.97,599.82,589.84,54.85,0000 0000 0000 0000 000000
2018-04-26 03:19:48,0.08,6.37,0.00,25.91,28.48,31.28,13.80,49.59,1016.13,2018.07,1659.05,1835.00,2071.28,600.29,590.24,54.90,0000 0000 0000 0000 000000
2018-04-26 03:24:50,0.09,6.37,0.00,25.95,28.50,31.29,13.70,49.45,1016.13,2018.03,1658.20,1834.50,2070.92,599.68,589.50,54.95,0000 0000 0000 0000 000000
2018-04-26 03:29:51,0.07,6.38,0.00,26.00,28.51,31.31,13.74,49.42,1016.13,2018.03,1657.52,1834.01,2070.12,600.11,589.85,55.00,0000 0000 0000 0000 000000
2018-04-26 03:34:53,0.04,6.38,0.00,26.00,28.53,31.34,13.80,49.48,1016.13,2018.03,1657.02,1833.79,2069.93,599.91,589.71,55.05,0000 0000 0000 0000 000000
2018-04-26 03:39:54,0.10,6.39,0.00,26.08,28.55,31.34,13.72,49.47,1016.12,2018.02,1656.53,1833.13,2069.26,599.85,589.43,55.10,0000 0000 0000 0000 000000
2018-04-26 03:44:56,0.02,6.39,0.00,26.11,28.57,31.37,13.75,49.52,1016.12,2018.00,1656.01,1832.96,2068.89,599.77,589.28,55.15,0000 0000 0000 0000 000000
2018-04-26 03:49:57,0.11,6.39,0.00,26.12,28.59,31.39,13.68,49.53,1016.03,2018.00,1655.42,1832.19,2068.10,599.57,589.11,55.20,0000 0000 0000 0000 000000
2018-04-26 03:54:58,0.02,6.40,0.00,26.14,28.61,31.41,13.79,49.54,1015.78,2018.00,1654.93,1831.99,2067.84,600.32,589.63,55.25,0000 0000 0000 0000 000000
2018-04-26 04:00:00,0.10,6.40,0.00,26.22,28.63,31.44,13.78,49.53,1015.66,2018.00,1654.28,1831.52,2067.09,599.87,589.04,55.30,0000 0000 0000 0000 000000
2018-04-26 04:05:01,0.03,6.40,0.00,26.24,28.66,31.46,13.74,49.52,1015.64,2017.91,1653.84,1831.01,2066.72,599.96,588.91,55.35,0000 0000 0000 0000 000000
2018-04-26 04:10:02,0.07,6.40,0.00,26.24,28.68,31.49,13.77,49.58,1015.64,2017.69,1653.07,1830.56,2066.03,600.18,589.20,55.41,0000 0000 0000 0000 000000
2018-04-26 04:15:04,0.04,6.41,0.00,26.27,28.70,31.52,13.73,49.49,1015.64,2017.26,1652.17,1830.01,2065.31,600.05,589.05,55.46,0000 0000 0000 0000 000000
2018-04-26 04:20:05,0.06,6.41,0.00,26.34,28.73,31.55,13.77,49.48,1015.64,2017.17,1651.70,1829.60,2064.98,600.00,588.84,55.51,0000 0000 0000 0000 000000
2018-04-26 04:25:06,0.06,6.41,0.00,26.34,28.75,31.56,13.85,49.53,1015.64,2017.07,1650.97,1829.02,2064.25,600.20,589.02,55.56,0000 0000 0000 0000 000000
2018-04-26 04:30:07,0.12,6.42,0.00,26.33,28.78,31.59,13.69,49.48,1015.62,2017.03,1650.03,1828.52,2063.59,600.24,588.83,55.61,0000 0000 0000 0000 000000
2018-04-26 04:35:08,0.05,6.42,0.00,26.36,28.80,31.63,13.67,49.47,1015.61,2017.00,1649.33,1828.01,2063.00,599.71,588.59,55.66,0000 0000 0000 0000 000000
2018-04-26 04:40:09,0.08,6.43,0.00,26.41,28.83,31.65,13.76,49.50,1015.57,2017.00,1648.78,1827.60,2062.40,599.99,588.58,55.71,0000 0000 0000 0000 000000
2018-04-26 04:45:11,0.06,6.43,0.00,26.45,28.86,31.67,13.78,49.48,1015.51,2017.00,1648.04,1827.02,2061.95,599.91,588.45,55.76,0000 0000 0000 0000 000000
2018-04-26 04:50:12,0.06,6.43,0.00,26.47,28.88,31.70,13.81,49.48,1015.45,2016.99,1647.72,1826.71,2061.29,600.27,588.59,55.81,0000 0000 0000 0000 000000
2018-04-26 04:55:13,0.11,6.44,0.00,26.48,28.91,31.72,13.72,49.36,1015.25,2016.98,1646.78,1826.04,2060.71,599.86,588.19,55.86,0000 0000 0000 0000 000000
2018-04-26 05:00:14,0.08,6.44,0.00,26.55,28.93,31.75,13.68,49.35,1015.17,2016.94,1645.92,1825.50,2059.99,599.91,588.03,55.91,0000 0000 0000 0000 000000
2018-04-26 05:05:16,0.02,6.45,0.00,26.57,28.96,31.77,13.71,49.45,1015.19,2016.72,1645.54,1825.00,2059.56,599.80,587.95,55.96,0000 0000 0000 0000 000000
2018-04-26 05:10:17,0.06,6.45,0.00,26.59,28.99,31.81,13.74,49.47,1015.17,2016.18,1644.57,1824.40,2058.85,600.16,588.25,56.01,0000 0000 0000 0000 000000
2018-04-26 05:15:18,0.02,6.45,0.00,26.58,29.02,31.83,13.73,49.40,1015.17,2016.08,1644.10,1824.00,2058.18,600.07,588.24,56.06,0000 0000 0000 0000 000000
2018-04-26 05:20:20,0.10,6.46,0.00,26.63,29.05,31.86,13.80,49.48,1015.18,2016.01,1643.34,1823.36,2057.57,600.17,588.02,56.11,0000 0000 0000 0000 000000
2018-04-26 05:25:21,0.06,6.46,0.00,26.68,29.08,31.90,13.71,49.48,1015.17,2016.00,1642.66,1822.99,2057.02,599.96,588.01,56.16,0000 0000 0000 0000 000000
2018-04-26 05:30:23,0.11,6.46,0.00,26.69,29.11,31.92,13.62,49.55,1015.16,2016.00,1641.95,1822.17,2056.18,599.73,587.52,56.21,0000 0000 0000 0000 000000
2018-04-26 05:35:24,0.07,6.47,0.00,26.67,29.13,31.95,13.75,49.62,1015.15,2015.99,1641.08,1821.92,2055.69,600.08,588.00,56.27,0000 0000 0000 0000 000000
2018-04-26 05:40:25,0.10,6.47,0.00,26.70,29.16,31.97,13.71,49.52,1015.15,2015.98,1640.32,1821.18,2055.02,600.13,588.00,56.32,0000 0000 0000 0000 000000
2018-04-26 05:45:26,0.04,6.47,0.00,26.72,29.18,32.01,13.69,49.44,1015.15,2015.89,1639.83,1820.92,2054.50,599.97,587.64,56.37,0000 0000 0000 0000 000000
2018-04-26 05:50:28,0.09,6.48,0.00,26.70,29.21,32.03,13.75,49.52,1015.15,2015.74,1639.03,1820.13,2053.94,600.07,587.77,56.42,0000 0000 0000 0000 000000
2018-04-26 05:55:29,0.03,6.48,0.00,26.73,29.23,32.04,13.75,49.55,1015.15,2015.43,1638.24,1819.92,2053.15,600.07,587.79,56.47,0000 0000 0000 0000 000000
2018-04-26 06:00:30,0.07,6.48,0.00,26.72,29.25,32.06,13.70,49.51,1015.15,2015.15,1637.72,1819.15,2052.76,599.86,587.61,56.52,0000 0000 0000 0000 000000
2018-04-26 06:05:32,0.04,6.49,0.00,26.74,29.27,32.09,13.78,49.55,1015.15,2015.02,1637.06,1818.91,2052.05,599.95,587.69,56.57,0000 0000 0000 0000 000000
2018-04-26 06:10:33,0.12,6.49,0.00,26.75,29.30,32.11,13.72,49.58,1015.15,2015.01,1636.17,1818.12,2051.40,599.96,587.69,56.62,0000 0000 0000 0000 000000
2018-04-26 06:15:34,0.02,6.49,0.00,26.77,29.31,32.12,13.64,49.54,1015.04,2015.00,1635.82,1817.94,2050.97,599.86,587.50,56.67,0000 0000 0000 0000 000000
2018-04-26 06:20:36,0.12,6.50,0.00,26.77,29.33,32.16,13.83,49.57,1014.76,2015.00,1634.98,1817.17,2050.17,600.32,587.71,56.72,0000 0000 0000 0000 000000
2018-04-26 06:25:37,0.07,6.50,0.00,26.80,29.35,32.17,13.73,49.50,1014.69,2014.98,1634.11,1816.91,2049.66,600.17,587.50,56.77,0000 0000 0000 0000 000000
2018-04-26 06:30:39,0.08,6.51,0.00,26.82,29.37,32.19,13.73,49.57,1014.68,2014.94,1633.63,1816.13,2049.01,600.11,587.42,56.82,0000 0000 0000 0000 000000
2018-04-26 06:35:40,0.09,6.51,0.00,26.85,29.40,32.20,13.72,49.48,1014.68,2014.88,1632.65,1815.85,2048.31,600.06,587.24,56.87,0000 0000 0000 0000 000000
2018-04-26 06:40:41,0.03,6.52,0.00,26.86,29.41,32.22,13.65,49.45,1014.68,2014.63,1632.00,1815.08,2047.77,599.89,587.04,56.92,0000 0000 0000 0000 000000
2018-04-26 06:45:42,0.03,6.52,0.00,26.85,29.43,32.23,13.71,49.49,1014.68,2014.28,1631.56,1814.88,2047.04,600.02,587.28,56.97,0000 0000 0000 0000 000000
2018-04-26 06:50:44,0.06,6.52,0.00,26.90,29.45,32.25,13.72,49.38,1014.67,2014.11,1630.80,1814.14,2046.96,600.16,587.33,57.02,0000 0000 0000 0000 000000
2018-04-26 06:55:45,0.08,6.52,0.00,26.91,29.47,32.28,13.66,49.44,1014.66,2014.07,1630.05,1813.90,2046.18,599.90,587.04,57.07,0000 0000 0000 0000 000000
2018-04-26 07:00:46,0.10,6.53,0.00,26.91,29.50,32.30,13.72,49.41,1014.66,2014.03,1629.30,1813.10,2045.77,600.20,587.31,57.12,0000 0000 0000 0000 000000
2018-04-26 07:05:47,0.05,6.53,0.00,26.92,29.51,32.32,13.59,49.46,1014.66,2014.00,1628.69,1812.88,2045.03,599.64,586.74,57.17,0000 0000 0000 0000 000000
2018-04-26 07:10:49,0.09,6.54,0.00,26.92,29.53,32.34,13.73,49.48,1014.66,2014.00,1628.05,1812.11,2044.52,600.05,587.15,57.23,0000 0000 0000 0000 000000
2018-04-26 07:15:50,0.07,6.54,0.00,26.94,29.55,32.34,13.60,49.42,1014.66,2014.00,1627.51,1811.79,2043.99,599.69,586.80,57.28,0000 0000 0000 0000 000000
2018-04-26 07:20:52,0.09,6.54,0.00,26.94,29.57,32.37,13.70,49.48,1014.66,2013.99,1626.73,1811.06,2043.28,600.05,587.28,57.33,0000 0000 0000 0000 000000
2018-04-26 07:25:53,0.04,6.55,0.00,26.96,29.59,32.38,13.64,49.48,1014.66,2013.98,1626.04,1810.86,2042.88,600.13,587.13,57.38,0000 0000 0000 0000 000000
2018-04-26 07:30:54,0.12,6.55,0.00,26.97,29.60,32.39,13.70,49.42,1014.66,2013.98,1625.18,1810.08,2042.08,600.35,587.40,57.43,0000 0000 0000 0000 000000
2018-04-26 07:35:56,0.04,6.56,0.00,26.97,29.62,32.42,13.69,49.52,1014.66,2013.97,1624.79,1809.89,2041.68,599.86,587.04,57.48,0000 0000 0000 0000 000000
2018-04-26 07:40:57,0.07,6.56,0.00,27.01,29.63,32.42,13.70,49.49,1014.66,2013.86,1624.05,1809.11,2041.03,599.94,586.81,57.53,0000 0000 0000 0000 000000
2018-04-26 07:45:58,0.06,6.56,0.00,27.02,29.65,32.44,13.64,49.47,1014.66,2013.63,1623.56,1808.94,2040.50,599.87,586.85,57.58,0000 0000 0000 0000 000000
2018-04-26 07:50:59,0.06,6.57,0.00,27.03,29.66,32.45,13.73,49.38,1014.66,2013.42,1622.68,1808.15,2039.94,599.87,586.74,57.63,0000 0000 0000 0000 000000
2018-04-26 07:56:01,0.03,6.57,0.00,27.05,29.68,32.47,13.72,49.37,1014.66,2013.20,1622.00,1807.94,2039.15,600.13,586.85,57.68,0000 0000 0000 0000 000000
2018-04-26 08:01:02,0.09,6.57,0.00,27.07,29.70,32.47,13.74,49.48,1014.66,2013.10,1621.32,1807.19,2038.89,600.16,586.93,57.73,0000 0000 0000 0000 000000
2018-04-26 08:06:04,0.03,6.58,0.00,27.11,29.72,32.50,13.70,49.48,1014.66,2013.03,1620.87,1806.95,2038.09,599.91,586.63,57.78,0000 0000 0000 0000 000000
2018-04-26 08:11:05,0.11,6.58,0.00,27.15,29.74,32.50,13.70,49.37,1014.65,2013.01,1620.06,1806.17,2037.64,599.98,586.64,57.83,0000 0000 0000 0000 000000
2018-04-26 08:16:06,0.02,6.58,0.00,27.18,29.76,32.53,13.68,49.45,1014.65,2013.00,1619.89,1805.97,2037.03,599.92,586.45,57.88,0000 0000 0000 0000 000000
2018-04-26 08:21:07,0.12,6.59,0.00,27.20,29.77,32.55,13.66,49.42,1014.59,2013.00,1619.09,1805.29,2036.53,599.73,586.28,57.93,0000 0000 0000 0000 000000
2018-04-26 08:26:09,0.05,6.59,0.00,27.24,29.79,32.58,13.64,49.42,1014.63,2012.99,1618.54,1804.95,2035.98,600.02,586.60,57.98,0000 0000 0000 0000 000000
2018-04-26 08:31:10,0.11,6.60,0.00,27.23,29.81,32.61,13.69,49.42,1014.53,2012.97,1617.82,1804.15,2035.18,600.25,586.80,58.03,0000 0000 0000 0000 000000
2018-04-26 08:36:11,0.04,6.60,0.00,27.26,29.83,32.62,13.64,49.43,1014.47,2012.97,1617.07,1803.95,2034.86,599.78,586.15,58.08,0000 0000 0000 0000 000000
2018-04-26 08:41:13,0.10,6.60,0.00,27.30,29.86,32.64,13.69,49.47,1014.40,2012.92,1616.47,1803.23,2034.08,599.86,586.08,58.14,0000 0000 0000 0000 000000
2018-04-26 08:46:14,0.00,6.61,0.00,27.34,29.88,32.66,13.76,49.46,1014.27,2012.59,1615.79,1802.89,2033.50,600.17,586.13,58.19,0000 0000 0000 0000 000000
2018-04-26 08:51:15,0.06,6.61,0.00,27.36,29.90,32.69,13.61,49.38,1014.23,2012.15,1615.04,1802.09,2032.97,599.97,585.98,58.24,0000 0000 0000 0000 000000
2018-04-26 08:56:17,0.07,6.61,0.00,27.35,29.92,32.71,13.67,49.42,1014.26,2012.05,1614.58,1801.88,2032.28,600.13,586.31,58.29,0000 0000 0000 0000 000000
2018-04-26 09:01:18,0.06,6.62,0.00,27.36,29.95,32.73,13.72,49.42,1014.26,2012.03,1613.91,1801.13,2031.95,600.13,586.14,58.34,0000 0000 0000 0000 000000
2018-04-26 09:06:19,0.09,6.62,0.00,27.35,29.97,32.76,13.71,49.42,1014.22,2012.00,1613.03,1800.84,2031.10,599.84,585.83,58.39,0000 0000 0000 0000 000000
2018-04-26 09:11:20,0.12,6.63,0.00,27.40,29.99,32.79,13.72,49.52,1014.22,2012.00,1612.19,1800.05,2030.46,600.18,586.08,58.44,0000 0000 0000 0000 000000
2018-04-26 09:16:22,0.02,6.63,0.00,27.45,30.01,32.79,13.70,49.40,1014.20,2012.00,1611.91,1799.84,2029.99,600.49,586.32,58.49,0000 0000 0000 0000 000000
2018-04-26 09:21:23,0.12,6.63,0.00,27.44,30.04,32.82,13.63,49.40,1014.19,2011.99,1611.09,1799.06,2029.28,599.73,585.71,58.54,0000 0000 0000 0000 000000
2018-04-26 09:26:24,0.10,6.64,0.00,27.44,30.06,32.85,13.67,49.42,1014.21,2011.96,1610.27,1798.64,2028.63,600.09,585.86,58.59,0000 0000 0000 0000 000000
2018-04-26 09:31:25,0.07,6.64,0.00,27.47,30.08,32.86,13.61,49.40,1014.22,2011.90,1609.48,1798.01,2028.00,599.87,585.60,58.64,0000 0000 0000 0000 000000
2018-04-26 09:36:27,0.06,6.65,0.00,27.47,30.10,32.88,13.63,49.39,1014.22,2011.73,1608.93,1797.44,2027.31,599.79,585.61,58.69,0000 0000 0000 0000 000000
2018-04-26 09:41:28,0.01,6.65,0.00,27.47,30.12,32.89,13.72,49.38,1014.22,2011.30,1608.10,1796.99,2026.85,600.06,585.85,58.74,0000 0000 0000 0000 000000
2018-04-26 09:46:29,0.10,6.65,0.00,27.52,30.15,32.91,13.66,49.44,1014.22,2011.07,1607.58,1796.34,2026.06,600.24,585.87,58.79,0000 0000 0000 0000 000000
2018-04-26 09:51:30,0.04,6.65,0.00,27.53,30.16,32.93,13.75,49.40,1014.19,2011.02,1606.94,1795.98,2025.51,600.30,585.93,58.84,0000 0000 0000 0000 000000
2018-04-26 09:56:32,0.11,6.66,0.00,27.51,30.18,32.95,13.69,49.38,1014.20,2011.00,1606.15,1795.30,2024.96,600.06,585.71,58.89,0000 0000 0000 0000 000000
2018-04-26 10:01:33,0.09,6.66,0.00,27.51,30.20,32.98,13.69,49.42,1014.19,2011.00,1605.22,1794.89,2024.15,599.92,585.64,58.94,0000 0000 0000 0000 000000
2018-04-26 10:06:34,0.13,6.67,0.00,27.48,30.22,32.98,13.83,49.42,1014.18,2011.00,1604.36,1794.10,2023.54,600.24,585.98,59.00,0000 0000 0000 0000 000000
2018-04-26 10:11:35,0.07,6.67,0.00,27.49,30.23,33.00,13.65,49.33,1014.18,2011.00,1603.57,1793.73,2022.97,600.01,585.74,59.05,0000 0000 0000 0000 000000
2018-04-26 10:16:37,0.07,6.68,0.00,27.49,30.25,33.01,13.66,49.36,1014.18,2010.95,1602.91,1793.03,2022.16,600.02,585.63,59.10,0000 0000 0000 0000 000000
2018-04-26 10:21:38,0.11,6.68,0.00,27.53,30.27,33.03,13.55,49.33,1014.18,2010.89,1602.18,1792.55,2021.58,599.97,585.60,59.15,0000 0000 0000 0000 000000
2018-04-26 10:26:39,-0.00,6.68,0.00,27.51,30.28,33.04,13.67,49.53,1014.18,2010.64,1601.69,1792.01,2021.00,599.78,585.47,59.20,0000 0000 0000 0000 000000
2018-04-26 10:31:41,0.11,6.69,0.00,27.50,30.30,33.06,13.64,49.47,1014.18,2010.47,1600.91,1791.59,2020.28,599.79,585.54,59.25,0000 0000 0000 0000 000000
2018-04-26 10:36:42,0.03,6.69,0.00,27.50,30.31,33.07,13.65,49.44,1014.18,2010.13,1599.92,1791.00,2019.68,599.93,585.55,59.30,0000 0000 0000 0000 000000
2018-04-26 10:41:44,0.11,6.70,0.00,27.52,30.32,33.07,13.69,49.51,1014.18,2010.04,1598.94,1790.22,2018.91,600.17,585.83,59.35,0000 0000 0000 0000 000000
2018-04-26 10:46:45,0.10,6.70,0.00,27.51,30.32,33.09,13.68,49.34,1014.18,2010.05,1598.08,1789.90,2018.09,599.82,585.51,59.40,0000 0000 0000 0000 000000
2018-04-26 10:51:46,0.11,6.71,0.00,27.48,30.34,33.10,13.76,49.43,1014.18,2010.06,1597.25,1789.13,2017.55,600.30,586.04,59.45,0000 0000 0000 0000 000000
2018-04-26 10:56:48,0.06,6.71,0.00,27.52,30.35,33.10,13.63,49.40,1014.18,2010.01,1596.64,1788.78,2016.95,599.69,585.35,59.50,0000 0000 0000 0000 000000
2018-04-26 11:01:49,0.09,6.72,0.00,27.52,30.35,33.11,13.72,49.60,1014.18,2010.00,1595.88,1788.06,2016.16,600.07,585.74,59.55,0000 0000 0000 0000 000000
2018-04-26 11:06:51,0.09,6.72,0.00,27.53,30.37,33.11,13.61,49.36,1014.18,2010.00,1595.03,1787.70,2015.81,599.97,585.49,59.60,0000 0000 0000 0000 000000
2018-04-26 11:11:52,0.09,6.73,0.00,27.51,30.37,33.11,13.79,49.57,1014.17,2010.00,1594.29,1787.02,2015.04,600.08,585.70,59.65,0000 0000 0000 0000 000000
2018-04-26 11:16:53,0.11,6.73,0.00,27.50,30.37,33.13,13.70,49.33,1014.17,2010.00,1593.61,1786.58,2014.30,600.48,586.17,59.70,0000 0000 0000 0000 000000
2018-04-26 11:21:55,0.05,6.73,0.00,27.50,30.38,33.13,13.61,49.40,1014.17,2010.00,1592.90,1786.01,2013.83,600.02,585.71,59.75,0000 0000 0000 0000 000000
2018-04-26 11:26:56,0.11,6.74,0.00,27.50,30.40,33.13,13.74,49.37,1014.17,2010.00,1592.06,1785.48,2013.06,600.13,585.81,59.80,0000 0000 0000 0000 000000
2018-04-26 11:31:58,0.08,6.74,0.00,27.52,30.40,33.15,13.67,49.37,1014.16,2010.00,1591.43,1785.00,2012.47,599.84,585.52,59.85,0000 0000 0000 0000 000000
2018-04-26 11:36:59,0.10,6.75,0.00,27.53,30.40,33.16,13.64,49.42,1014.17,2010.00,1590.65,1784.37,2011.92,599.70,585.37,59.91,0000 0000 0000 0000 000000
2018-04-26 11:42:00,0.06,6.75,0.00,27.51,30.40,33.15,13.68,49.34,1014.16,2009.99,1589.94,1783.98,2011.13,599.94,585.62,59.96,0000 0000 0000 0000 000000
2018-04-26 11:47:02,0.13,6.76,0.00,27.52,30.42,33.16,13.64,49.40,1014.13,2009.98,1589.05,1783.25,2010.55,599.97,585.60,60.01,0000 0000 0000 0000 000000
2018-04-26 11:52:03,0.08,6.76,0.00,27.52,30.42,33.17,13.63,49.33,1014.16,2009.98,1588.13,1782.82,2009.96,599.62,585.41,60.06,0000 0000 0000 0000 000000
2018-04-26 11:57:04,0.12,6.77,0.00,27.50,30.42,33.16,13.62,49.42,1014.16,2009.97,1587.39,1782.06,2009.15,599.76,585.47,60.11,0000 0000 0000 0000 000000
2018-04-26 12:02:05,0.00,2.26,0.00,27.48,30.44,33.19,11.96,41.73,1014.17,2012.66,2839.06,2636.24,3019.23,534.53,521.75,0.03,0000 0000 0000 0000 000002
2018-04-26 12:07:06,0.00,0.00,0.00,27.48,30.45,33.19,13.64,46.52,1014.15,2014.00,3460.04,3061.46,3522.75,599.99,585.73,0.04,0000 0000 0000 0000 000000
2018-04-26 12:12:08,0.02,0.00,0.00,27.47,30.45,33.16,13.64,46.40,1014.10,2014.00,3457.24,3059.88,3520.69,600.05,585.78,0.09,0000 0000 0000 0000 000000
2018-04-26 12:17:09,0.04,0.01,0.00,27.47,30.45,33.17,13.63,46.38,1014.11,2014.00,3454.78,3058.40,3518.79,599.90,585.56,0.14,0000 0000 0000 0000 000000
2018-04-26 12:22:10,0.07,0.01,0.00,27.45,30.45,33.17,13.69,46.59,1014.11,2013.99,3452.42,3056.89,3516.95,600.20,585.96,0.19,0000 0000 0000 0000 000000
2018-04-26 12:27:11,0.09,0.02,0.00,27.44,30.45,33.17,13.67,46.49,1014.13,2013.99,3450.15,3055.54,3515.08,600.03,585.82,0.24,0000 0000 0000 0000 000000
2018-04-26 12:32:13,0.10,0.02,0.00,27.44,30.45,33.17,13.66,46.45,1014.07,2013.98,3447.86,3054.05,3513.15,600.04,585.85,0.29,0000 0000 0000 0000 000000
2018-04-26 12:37:14,0.10,0.03,0.00,27.47,30.45,33.16,13.63,46.47,1013.80,2013.99,3445.63,3052.63,3511.43,599.82,585.40,0.34,0000 0000 0000 0000 000000
2018-04-26 12:42:15,0.09,0.03,0.00,27.45,30.45,33.17,13.67,46.37,1013.72,2013.98,3443.42,3051.21,3509.60,600.04,585.52,0.39,0000 0000 0000 0000 000000
2018-04-26 12:47:16,0.10,0.04,0.00,27.45,30.45,33.17,13.59,46.52,1013.71,2013.99,3441.17,3049.76,3507.82,599.65,585.30,0.44,0000 0000 0000 0000 000000
2018-04-26 12:52:17,0.09,0.04,0.00,27.44,30.45,33.16,13.66,46.51,1013.71,2013.98,3438.94,3048.38,3506.02,599.66,585.30,0.49,0000 0000 0000 0000 000000
2018-04-26 12:57:19,0.09,0.05,0.00,27.42,30.45,33.17,13.65,46.46,1013.69,2013.98,3436.66,3046.89,3504.24,600.19,585.76,0.55,0000 0000 0000 0000 000000